Flag for Romania Weather past 2 weeks in Timișoara, Romania

Now
54 °F

Rain. Fog.


Feels Like: 50 °F
Forecast: 36 / 55 °F
Wind: 13 mph from West

Location: Timisoara Airport

Current Time: Apr 18, 2015 at 7:27:33 AM

Latest Report: Apr 18, 2015 at 6:30 AM


Visibility: 3 mi

Pressure: 29.80 "Hg

Humidity: 100%

Dew point: 54 °F

Location of TimișoaraLocation

Historic Weather in Timișoara — Graph

°F

Timișoara temperature yesterday

Maximum temperature yesterday: 75 °F (at 1:30 PM)
Minimum temperature yesterday: 50 °F (at 7:30 AM)
Average temperature yesterday: 62 °F

Past Weeks' High & Low Weather Summary

 TemperatureHumidityPressure
High79 °F (Apr 16, 3:00 PM)100% (Apr 4, 1:00 AM)30.42 "Hg (Apr 4, 1:00 AM)
Low27 °F (Apr 4, 4:30 AM)13% (Apr 16, 4:30 PM)29.80 "Hg (Apr 18, 3:00 AM)
Average51 °F58%30.11 "Hg
* Reported Apr 3 5:00 AM — Apr 18 5:30 AM, Timișoara, Weather by CustomWeather, © 2015

Note: Actual official high and low records may vary slightly from our data, if they occured in-between our weather recording intervals... More about our weather records

Advertising

Timișoara weather history for previous 24 hours

 ConditionsComfort  
Time TempWeatherWind HumidityBarometerVisibility
5:30 AM
Sat, Apr 18
54 °FLight rain. Passing clouds.10 mph100%29.80 "Hg4 mi
5:00 AM54 °FLight rain. Passing clouds.10 mph100%29.80 "Hg5 mi
4:30 AM54 °FLight rain. Passing clouds.12 mph100%29.80 "Hg5 mi
4:00 AM54 °FLight rain. Passing clouds.15 mph100%29.80 "Hg5 mi
3:30 AM54 °FLight rain. Passing clouds.13 mph100%29.83 "HgN/A
3:00 AM54 °FLight rain. Clear.13 mph100%29.80 "HgN/A
2:30 AM54 °FLight rain. Passing clouds.13 mph100%29.83 "HgN/A
2:00 AM54 °FLight rain. Overcast.12 mph100%29.83 "HgN/A
1:30 AM54 °FSprinkles. Passing clouds.10 mph100%29.83 "HgN/A
1:00 AM55 °FRain showers. Passing clouds.10 mph94%29.86 "Hg4 mi
12:30 AM54 °FClear.3 mph100%29.83 "Hg10 mi
12:00 AM55 °FLight rain. Clear.3 mph94%29.83 "HgN/A
11:30 PM
Fri, Apr 17
55 °FLight rain. Clear.3 mph88%29.83 "HgN/A
11:00 PM55 °FClear.5 mph94%29.83 "Hg10 mi
10:30 PM55 °FClear.3 mph94%29.83 "Hg10 mi
10:00 PM55 °FClear.6 mph94%29.83 "Hg10 mi
9:30 PM55 °FClear.5 mph94%29.83 "Hg10 mi
9:00 PM57 °FLight rain. Clear.3 mph82%29.83 "HgN/A
8:30 PM59 °FLight rain. Passing clouds.6 mph77%29.86 "HgN/A
8:00 PM61 °FLight rain. Clear.9 mph68%29.89 "HgN/A
7:30 PM63 °FLight rain. Clear.10 mph64%29.86 "HgN/A
7:00 PM64 °FLight rain. Clear.7 mph49%29.86 "HgN/A
6:30 PM66 °FLight rain. Clear.20 mph46%29.86 "HgN/A
6:00 PM68 °FPassing clouds.7 mph40%29.86 "HgN/A
5:30 PM68 °FSunny.16 mph38%29.89 "Hg10 mi
5:00 PM70 °FSunny.20 mph31%29.86 "Hg10 mi
4:30 PM70 °FPassing clouds.16 mph33%29.86 "HgN/A
4:00 PM72 °FPassing clouds.18 mph31%29.86 "HgN/A
3:30 PM73 °FSunny.21 mph31%29.86 "Hg10 mi
3:00 PM75 °FSunny.17 mph27%29.86 "Hg10 mi
2:30 PM75 °FSunny.20 mph27%29.86 "Hg10 mi
2:00 PM75 °FSunny.16 mph25%29.86 "Hg10 mi
1:30 PM75 °FPassing clouds.16 mph27%29.89 "HgN/A
1:00 PM73 °FSunny.18 mph29%29.89 "Hg10 mi
12:30 PM73 °FPassing clouds.15 mph27%29.89 "HgN/A
12:00 PM72 °FPassing clouds.15 mph27%29.89 "HgN/A
11:30 AM72 °FSunny.13 mph31%29.89 "Hg10 mi
11:00 AM70 °FSunny.13 mph38%29.92 "Hg10 mi
10:30 AM68 °FSunny.13 mph38%29.92 "Hg10 mi
10:00 AM66 °FSunny.10 mph40%29.92 "Hg10 mi
9:30 AM63 °FSunny.9 mph49%29.92 "Hg10 mi
9:00 AM59 °FPassing clouds.7 mph59%29.92 "HgN/A
8:30 AM55 °FPassing clouds.3 mph67%29.92 "HgN/A
8:00 AM54 °FSunny.6 mph67%29.92 "Hg10 mi
7:30 AM50 °FClear.8 mph76%29.92 "Hg10 mi
7:00 AM55 °FClear.6 mph59%29.92 "Hg10 mi
Weather by CustomWeather, © 2015

See weather overviewHow to use our weather pages